TimeCST,TemperatureF,Dew PointF,Humidity,Sea Level PressureIn,VisibilityMPH,Wind Direction,Wind SpeedMPH,Gust SpeedMPH,PrecipitationIn,Events,Conditions,WindDirDegrees,DateUTC
12:15 AM,16.3,13.6,89,29.98,10.0,WSW,3.5,-,N/A,,Scattered Clouds,240,2013-12-15 06:15:00
12:35 AM,15.8,13.1,89,29.98,10.0,WSW,4.6,-,N/A,,Clear,250,2013-12-15 06:35:00
12:55 AM,14.9,12.2,89,29.97,10.0,WSW,6.9,-,N/A,,Scattered Clouds,250,2013-12-15 06:55:00
1:15 AM,14.9,12.2,89,29.97,10.0,WSW,8.1,-,N/A,,Scattered Clouds,250,2013-12-15 07:15:00
1:35 AM,15.6,13.1,90,29.97,10.0,WSW,9.2,-,N/A,,Mostly Cloudy,250,2013-12-15 07:35:00
1:55 AM,16.7,14.0,89,29.97,10.0,West,10.4,16.1,N/A,,Overcast,260,2013-12-15 07:55:00
2:15 AM,17.2,13.8,86,29.98,10.0,West,9.2,-,N/A,,Overcast,260,2013-12-15 08:15:00
2:35 AM,17.6,13.8,85,29.99,10.0,West,8.1,-,N/A,,Overcast,260,2013-12-15 08:35:00
2:55 AM,17.6,13.5,84,29.99,10.0,West,9.2,17.3,N/A,,Overcast,260,2013-12-15 08:55:00
3:15 AM,17.4,12.9,83,29.99,10.0,West,9.2,19.6,N/A,,Overcast,280,2013-12-15 09:15:00
3:35 AM,16.0,10.9,81,29.99,3.0,West,11.5,25.3,N/A,Snow,Light Snow,270,2013-12-15 09:35:00
3:55 AM,14.9,10.0,81,29.98,5.0,West,12.7,20.7,N/A,,Haze,270,2013-12-15 09:55:00
4:15 AM,14.9,9.9,80,29.97,7.0,West,12.7,18.4,N/A,Snow,Light Snow,280,2013-12-15 10:15:00
4:35 AM,14.9,9.5,79,29.99,7.0,West,11.5,19.6,N/A,,Overcast,280,2013-12-15 10:35:00
4:55 AM,14.5,8.8,78,30.00,10.0,West,15.0,21.9,N/A,,Overcast,280,2013-12-15 10:55:00
5:15 AM,14.0,8.1,77,30.00,7.0,WNW,12.7,24.2,N/A,Snow,Light Snow,290,2013-12-15 11:15:00
5:35 AM,13.8,7.7,77,30.01,10.0,West,13.8,20.7,N/A,Snow,Light Snow,280,2013-12-15 11:35:00
5:55 AM,12.9,6.8,77,30.02,10.0,WNW,9.2,16.1,N/A,,Overcast,290,2013-12-15 11:55:00
6:15 AM,12.2,6.3,77,30.02,10.0,West,10.4,-,N/A,Snow,Light Snow,280,2013-12-15 12:15:00
6:35 AM,11.3,5.4,77,30.03,10.0,West,10.4,-,N/A,,Scattered Clouds,270,2013-12-15 12:35:00
6:55 AM,10.4,4.6,78,30.03,10.0,West,4.6,-,N/A,,Clear,270,2013-12-15 12:55:00
7:15 AM,10.0,4.1,77,30.04,10.0,West,6.9,-,N/A,,Clear,280,2013-12-15 13:15:00
7:35 AM,10.9,4.5,75,30.05,10.0,West,6.9,-,N/A,,Mostly Cloudy,280,2013-12-15 13:35:00
7:55 AM,11.3,4.6,75,30.05,10.0,West,8.1,-,N/A,,Mostly Cloudy,280,2013-12-15 13:55:00
8:15 AM,11.3,4.6,75,30.05,10.0,WSW,8.1,-,N/A,,Mostly Cloudy,250,2013-12-15 14:15:00
8:35 AM,11.7,4.8,74,30.05,10.0,West,6.9,-,N/A,,Mostly Cloudy,260,2013-12-15 14:35:00
8:55 AM,12.0,4.8,73,30.05,10.0,West,6.9,-,N/A,,Mostly Cloudy,270,2013-12-15 14:55:00
9:15 AM,12.2,4.6,72,30.06,10.0,West,10.4,16.1,N/A,,Mostly Cloudy,270,2013-12-15 15:15:00
9:35 AM,12.2,4.8,72,30.07,10.0,West,13.8,-,N/A,,Scattered Clouds,270,2013-12-15 15:35:00
9:55 AM,12.2,5.2,73,30.07,10.0,West,10.4,16.1,N/A,,Mostly Cloudy,260,2013-12-15 15:55:00
10:15 AM,12.9,5.5,72,30.08,10.0,West,11.5,17.3,N/A,,Overcast,270,2013-12-15 16:15:00
10:35 AM,12.9,5.2,71,30.07,10.0,West,10.4,17.3,N/A,,Overcast,270,2013-12-15 16:35:00
10:55 AM,12.9,5.2,71,30.06,10.0,West,9.2,17.3,N/A,,Overcast,270,2013-12-15 16:55:00
11:15 AM,13.1,5.4,71,30.06,10.0,West,12.7,18.4,N/A,,Overcast,280,2013-12-15 17:15:00
11:35 AM,13.1,5.0,70,30.06,10.0,West,12.7,16.1,N/A,,Overcast,270,2013-12-15 17:35:00
11:55 AM,12.7,4.8,71,30.05,10.0,West,11.5,17.3,N/A,,Overcast,270,2013-12-15 17:55:00
12:15 PM,12.9,4.5,69,30.04,10.0,West,13.8,18.4,N/A,,Overcast,270,2013-12-15 18:15:00
12:35 PM,12.6,4.1,69,30.06,10.0,West,11.5,17.3,N/A,,Overcast,280,2013-12-15 18:35:00
12:55 PM,12.6,4.5,70,30.06,10.0,WNW,12.7,18.4,N/A,,Overcast,290,2013-12-15 18:55:00
1:15 PM,12.7,4.6,70,30.06,10.0,WNW,10.4,17.3,N/A,,Overcast,290,2013-12-15 19:15:00
1:35 PM,12.9,4.6,70,30.06,10.0,West,10.4,18.4,N/A,,Mostly Cloudy,270,2013-12-15 19:35:00
1:55 PM,12.9,4.3,68,30.05,10.0,West,10.4,-,N/A,,Overcast,270,2013-12-15 19:55:00
2:15 PM,13.1,4.1,67,30.05,10.0,West,10.4,-,N/A,,Overcast,270,2013-12-15 20:15:00
2:35 PM,13.1,4.5,68,30.06,10.0,WNW,8.1,16.1,N/A,,Overcast,290,2013-12-15 20:35:00
2:55 PM,13.1,4.6,69,30.07,10.0,West,9.2,-,N/A,,Overcast,280,2013-12-15 20:55:00
3:15 PM,13.3,4.6,68,30.06,10.0,West,8.1,-,N/A,,Overcast,270,2013-12-15 21:15:00
3:35 PM,13.3,4.8,69,30.08,10.0,WNW,6.9,-,N/A,,Overcast,290,2013-12-15 21:35:00
3:55 PM,13.1,4.8,70,30.08,10.0,West,6.9,-,N/A,,Overcast,270,2013-12-15 21:55:00
4:15 PM,13.1,5.0,70,30.08,10.0,West,4.6,-,N/A,,Overcast,270,2013-12-15 22:15:00
4:35 PM,13.1,5.0,70,30.09,10.0,WSW,5.8,-,N/A,,Overcast,250,2013-12-15 22:35:00
4:55 PM,12.9,5.5,72,30.09,10.0,West,4.6,-,N/A,,Overcast,260,2013-12-15 22:55:00
5:15 PM,12.9,5.5,72,30.09,10.0,West,5.8,-,N/A,,Overcast,270,2013-12-15 23:15:00
5:35 PM,12.2,4.8,72,30.09,10.0,West,3.5,-,N/A,,Mostly Cloudy,260,2013-12-15 23:35:00
5:55 PM,11.8,4.8,73,30.10,10.0,West,4.6,-,N/A,,Scattered Clouds,260,2013-12-15 23:55:00
6:15 PM,11.3,4.6,75,30.10,10.0,West,3.5,-,N/A,,Clear,270,2013-12-16 00:15:00
6:35 PM,11.1,4.6,75,30.11,10.0,West,4.6,-,N/A,,Clear,270,2013-12-16 00:35:00
6:55 PM,11.3,4.5,74,30.11,10.0,West,3.5,-,N/A,,Clear,270,2013-12-16 00:55:00
7:15 PM,10.9,4.3,75,30.12,10.0,Calm,Calm,-,N/A,,Clear,0,2013-12-16 01:15:00
7:35 PM,10.4,4.1,76,30.11,10.0,Calm,Calm,-,N/A,,Clear,0,2013-12-16 01:35:00
7:55 PM,10.9,4.5,75,30.12,10.0,West,3.5,-,N/A,,Scattered Clouds,270,2013-12-16 01:55:00
8:15 PM,11.3,4.8,75,30.13,10.0,West,3.5,-,N/A,,Mostly Cloudy,270,2013-12-16 02:15:00
8:35 PM,11.7,5.0,75,30.13,10.0,West,3.5,-,N/A,,Overcast,270,2013-12-16 02:35:00
8:55 PM,11.8,5.0,74,30.13,10.0,West,4.6,-,N/A,,Overcast,270,2013-12-16 02:55:00
9:15 PM,11.8,5.0,74,30.12,10.0,West,4.6,-,N/A,,Overcast,270,2013-12-16 03:15:00
9:35 PM,12.0,5.0,73,30.13,10.0,West,5.8,-,N/A,,Overcast,280,2013-12-16 03:35:00
9:55 PM,12.0,5.0,73,30.12,10.0,West,4.6,-,N/A,,Overcast,280,2013-12-16 03:55:00
10:15 PM,12.2,4.8,72,30.12,10.0,WNW,3.5,-,N/A,,Overcast,300,2013-12-16 04:15:00
10:35 PM,12.2,5.2,73,30.12,10.0,WNW,3.5,-,N/A,,Overcast,300,2013-12-16 04:35:00
10:55 PM,12.2,5.2,73,30.12,10.0,WNW,3.5,-,N/A,,Overcast,290,2013-12-16 04:55:00
11:15 PM,12.7,4.8,71,30.12,10.0,Calm,Calm,-,N/A,,Overcast,0,2013-12-16 05:15:00
11:35 PM,12.7,4.3,69,30.12,10.0,Calm,Calm,-,N/A,,Overcast,0,2013-12-16 05:35:00
11:55 PM,12.9,4.5,69,30.13,10.0,WNW,3.5,-,N/A,,Overcast,300,2013-12-16 05:55:00